Tracy, MN

10:52 AM CDT on October 18, 2017 (GMT -0500)
Tracy

Weather History for KTKC - December, 2012

Change the Weather History Date:

Monday, December 31, 2012

  Actual Average (KMML) Record (KMML)
Temperature  
Mean Temperature 8 °F -  
Max Temperature 19 °F 20 °F 48 °F (1999)
Min Temperature -4 °F 1 °F -40 °F (1987)
Degree Days  
Heating Degree Days 58    
Moisture  
Dew Point 2 °F    
Average Humidity 79    
Maximum Humidity 85    
Minimum Humidity 69    
Precipitation  
Precipitation 0.00 in - - ()
Sea Level Pressure  
Sea Level Pressure 30.18 in    
Wind  
Wind Speed 11 mph (NNW)    
Max Wind Speed 17 mph    
Max Gust Speed 25 mph    
Visibility 10 miles    
Events Snow    
Averages and records for this station are not official NWS values.
T = Trace of Precipitation, MM = Missing Value Source: NWS Daily Summary

Daily Weather History Graph

Daily Weather History Graph

Search for Another Location

Airport or City:

Trip Planner

Search our weather history database for the weather conditions in past years. The results will help you decide how hot, cold, wet, or windy it might be!

Date:

Astronomy

Dec. 31, 2012 Rise Set
Actual Time 7:58 AM CST 4:53 PM CST
Civil Twilight 7:24 AM CST 5:26 PM CST
Nautical Twilight 6:48 AM CST 6:03 PM CST
Astronomical Twilight 6:13 AM CST 6:38 PM CST
Moon 8:33 PM CST (12/31) 9:32 AM CST (12/31)
Length of Visible Light 10h 01m
Length of Day
8h 55m
Waning Gibbous, 90% of the Moon is Illuminated
Dec 31
Waning Gibbous
Jan 4
Last Quarter
Jan 11
New
Jan 18
First Quarter
Jan 26
Full

Hourly Weather History & Observations

Time (CST) Temp. Windchill Dew Point Humidity Pressure Visibility Wind Dir Wind Speed Gust Speed Precip Events Conditions
12:16 AM 19.6 °F 6.2 °F 15.8 °F 85% 30.06 in 7.0 mi NNW 13.8 mph 25.3 mph N/A   Overcast
12:36 AM 18.5 °F 3.3 °F 14.7 °F 85% 30.07 in 10.0 mi North 17.3 mph 24.2 mph N/A   Overcast
12:56 AM 18.1 °F 3.4 °F 14.0 °F 84% 30.07 in 10.0 mi NNW 16.1 mph 25.3 mph N/A   Overcast
1:16 AM 17.6 °F 3.2 °F 13.6 °F 84% 30.08 in 10.0 mi NNW 15.0 mph 18.4 mph N/A   Overcast
1:55 AM 17.4 °F 4.7 °F 13.5 °F 84% 30.10 in 10.0 mi NNW 11.5 mph - N/A   Overcast
2:36 AM 17.6 °F 3.7 °F 13.6 °F 84% 30.12 in 10.0 mi NNW 13.8 mph 20.7 mph N/A   Overcast
2:56 AM 17.2 °F 4.5 °F 13.1 °F 84% 30.12 in 10.0 mi NNW 11.5 mph 19.6 mph N/A Snow Light Snow
3:16 AM 16.3 °F 3.4 °F 12.2 °F 84% 30.13 in 10.0 mi NNW 11.5 mph - N/A Snow Light Snow
3:36 AM 15.8 °F 3.4 °F 11.5 °F 83% 30.13 in 10.0 mi NNW 10.4 mph - N/A   Mostly Cloudy
3:56 AM 15.6 °F 3.2 °F 11.1 °F 82% 30.12 in 10.0 mi NW 10.4 mph - N/A   Overcast
4:16 AM 16.3 °F 4.1 °F 11.3 °F 81% 30.14 in 10.0 mi NW 10.4 mph - N/A   Overcast
4:36 AM 16.5 °F 3.0 °F 11.3 °F 80% 30.11 in 10.0 mi NNW 12.7 mph - N/A Snow Light Snow
4:56 AM 16.3 °F 4.1 °F 11.3 °F 81% 30.12 in 10.0 mi NNW 10.4 mph - N/A   Overcast
5:16 AM 16.0 °F 5.3 °F 11.1 °F 81% 30.14 in 10.0 mi NNW 8.1 mph - N/A Snow Light Snow
5:36 AM 15.8 °F 5.1 °F 10.4 °F 79% 30.16 in 10.0 mi NNW 8.1 mph - N/A   Overcast
5:56 AM 15.6 °F - 10.8 °F 81% 30.17 in 10.0 mi Calm Calm - N/A Snow Light Snow
6:16 AM 15.3 °F 5.4 °F 10.9 °F 83% 30.16 in 7.0 mi North 6.9 mph - N/A Snow Light Snow
6:36 AM 14.9 °F 4.0 °F 11.1 °F 85% 30.15 in 7.0 mi North 8.1 mph - N/A Snow Light Snow
6:56 AM 14.9 °F 1.6 °F 10.4 °F 82% 30.15 in 10.0 mi North 11.5 mph - N/A Snow Light Snow
7:16 AM 13.6 °F -1.9 °F 8.4 °F 80% 30.16 in 10.0 mi North 15.0 mph - N/A Snow Light Snow
7:36 AM 12.7 °F -1.1 °F 7.7 °F 80% 30.17 in 10.0 mi North 11.5 mph - N/A Snow Light Snow
7:56 AM 12.2 °F -1.8 °F 7.2 °F 80% 30.17 in 10.0 mi North 11.5 mph - N/A   Overcast
8:16 AM 11.7 °F -4.4 °F 5.9 °F 78% 30.18 in 10.0 mi North 15.0 mph - N/A Snow Light Snow
8:36 AM 11.3 °F -4.3 °F 5.9 °F 79% 30.19 in 10.0 mi North 13.8 mph - N/A Snow Light Snow
8:56 AM 10.9 °F -5.9 °F 5.4 °F 78% 30.18 in 7.0 mi North 16.1 mph 20.7 mph N/A Snow Light Snow
9:16 AM 10.4 °F -6.6 °F 5.0 °F 79% 30.20 in 7.0 mi North 16.1 mph - N/A Snow Light Snow
9:36 AM 10.2 °F -3.5 °F 5.0 °F 79% 30.21 in 5.0 mi North 10.4 mph - N/A Snow Light Snow
9:56 AM 10.0 °F -4.5 °F 5.4 °F 81% 30.21 in 4.0 mi NNW 11.5 mph 16.1 mph N/A Snow Light Snow
10:16 AM 9.7 °F -5.0 °F 4.1 °F 78% 30.21 in 7.0 mi North 11.5 mph - N/A Snow Light Snow
10:36 AM 9.5 °F -5.2 °F 4.6 °F 81% 30.21 in 5.0 mi North 11.5 mph - N/A Snow Light Snow
10:56 AM 9.5 °F -5.9 °F 4.1 °F 79% 30.21 in 7.0 mi North 12.7 mph - N/A Snow Light Snow
11:16 AM 8.6 °F -7.7 °F 2.3 °F 76% 30.21 in 10.0 mi North 13.8 mph - N/A   Overcast
11:36 AM 8.2 °F -6.8 °F 1.6 °F 74% 30.21 in 10.0 mi NNW 11.5 mph - N/A   Mostly Cloudy
11:55 AM 7.7 °F -7.4 °F 0.1 °F 71% 30.20 in 10.0 mi North 11.5 mph - N/A   Scattered Clouds
12:16 PM 7.5 °F -6.9 °F -0.0 °F 71% 30.20 in 10.0 mi NNW 10.4 mph - N/A   Clear
12:36 PM 7.5 °F -7.7 °F -0.4 °F 70% 30.21 in 10.0 mi North 11.5 mph - N/A   Clear
12:56 PM 7.3 °F -7.9 °F -0.8 °F 69% 30.20 in 10.0 mi North 11.5 mph - N/A   Clear
1:15 PM 7.0 °F -6.6 °F -0.4 °F 72% 30.20 in 10.0 mi NNW 9.2 mph - N/A   Clear
1:36 PM 6.8 °F -5.9 °F -0.4 °F 72% 30.20 in 10.0 mi NNW 8.1 mph - N/A   Clear
1:56 PM 7.2 °F -6.4 °F -0.2 °F 72% 30.19 in 10.0 mi NNW 9.2 mph - N/A   Clear
2:15 PM 6.8 °F -5.9 °F -0.6 °F 72% 30.19 in 10.0 mi NNW 8.1 mph - N/A   Clear
2:36 PM 6.6 °F -7.1 °F -0.8 °F 72% 30.20 in 10.0 mi NNW 9.2 mph - N/A   Clear
2:56 PM 6.3 °F -7.5 °F -1.3 °F 71% 30.20 in 10.0 mi NNW 9.2 mph - N/A   Clear
3:16 PM 5.9 °F -8.0 °F -1.3 °F 72% 30.21 in 10.0 mi NNW 9.2 mph - N/A   Clear
3:36 PM 5.7 °F -6.1 °F -1.3 °F 73% 30.21 in 10.0 mi NNW 6.9 mph - N/A   Clear
3:56 PM 4.8 °F -9.3 °F -2.0 °F 73% 30.21 in 10.0 mi NNW 9.2 mph - N/A   Clear
4:16 PM 4.1 °F -10.2 °F -2.2 °F 75% 30.21 in 10.0 mi NNW 9.2 mph - N/A   Clear
4:36 PM 3.2 °F -7.8 °F -2.9 °F 76% 30.21 in 10.0 mi NNW 5.8 mph - N/A   Clear
4:56 PM 1.9 °F -10.6 °F -4.0 °F 76% 30.20 in 10.0 mi NNW 6.9 mph - N/A   Clear
5:15 PM -0.4 °F -13.4 °F -5.1 °F 81% 30.21 in 10.0 mi NW 6.9 mph - N/A   Clear
5:36 PM -0.8 °F -13.9 °F -5.1 °F 82% 30.21 in 10.0 mi NW 6.9 mph - N/A   Clear
5:56 PM 0.3 °F -11.2 °F -4.4 °F 81% 30.22 in 10.0 mi WNW 5.8 mph - N/A   Clear
6:16 PM -0.4 °F -10.4 °F -5.1 °F 81% 30.22 in 10.0 mi WNW 4.6 mph - N/A   Clear
6:35 PM -1.1 °F -14.3 °F -6.0 °F 80% 30.22 in 10.0 mi NW 6.9 mph - N/A   Clear
6:56 PM -2.4 °F -15.8 °F -7.2 °F 80% 30.22 in 10.0 mi NW 6.9 mph - N/A   Clear
7:16 PM -2.7 °F -17.5 °F -7.1 °F 82% 30.22 in 10.0 mi NW 8.1 mph - N/A   Clear
7:35 PM -4.2 °F -21.4 °F -8.5 °F 82% 30.22 in 10.0 mi NW 10.4 mph - N/A   Clear
7:56 PM -4.0 °F -19.0 °F -8.5 °F 81% 30.22 in 10.0 mi NW 8.1 mph - N/A   Clear
8:16 PM -3.3 °F -19.3 °F -7.8 °F 81% 30.22 in 10.0 mi NW 9.2 mph - N/A   Clear
8:36 PM -4.0 °F -17.8 °F -8.1 °F 82% 30.22 in 10.0 mi NW 6.9 mph - N/A   Clear
8:55 PM -2.7 °F -16.2 °F -6.7 °F 83% 30.22 in 10.0 mi NW 6.9 mph - N/A   Clear
9:16 PM -1.7 °F -13.5 °F -5.8 °F 83% 30.22 in 10.0 mi WNW 5.8 mph - N/A   Clear
9:36 PM -1.8 °F -13.7 °F -6.0 °F 83% 30.22 in 10.0 mi WNW 5.8 mph - N/A   Clear
9:55 PM -1.8 °F -13.7 °F -6.2 °F 82% 30.22 in 10.0 mi WNW 5.8 mph - N/A   Clear
10:16 PM -4.0 °F - -8.0 °F 83% 30.22 in 10.0 mi Calm Calm - N/A   Clear
10:36 PM -4.4 °F - -8.5 °F 82% 30.23 in 10.0 mi Calm Calm - N/A   Clear
10:55 PM -4.4 °F - -8.5 °F 82% 30.23 in 10.0 mi Calm Calm - N/A   Clear
11:16 PM -4.0 °F - -8.0 °F 83% 30.24 in 10.0 mi Calm Calm - N/A   Clear
11:36 PM -2.4 °F - -6.7 °F 82% 30.24 in 10.0 mi Calm Calm - N/A   Clear
11:55 PM -3.8 °F - -8.3 °F 81% 30.24 in 10.0 mi Calm Calm - N/A   Clear